Weather History for Lapeer, MI

Change the Weather History Date:

Wednesday, June 26, 2013

  Actual Average (KFNT) Record (KFNT)
Temperature  
Mean Temperature 74 °F 69 °F  
Max Temperature 83 °F 81 °F 99 °F (1921)
Min Temperature 64 °F 58 °F 43 °F (1981)
Degree Days  
Heating Degree Days 0 1  
Month to date heating degree days 62  
Since 1 June heating degree days 62  
Since 1 July heating degree days 6949  
Cooling Degree Days 8 5  
Month to date cooling degree days 89  
Year to date cooling degree days 121  
Since 1 June cooling degree days 89  
Growing Degree Days 24 (Base 50)    
Moisture  
Dew Point 66 °F    
Average Humidity 78    
Maximum Humidity 98    
Minimum Humidity 54    
Precipitation  
Precipitation 0.00 in 0.09 in 0.82 in (1989)
Month to date precipitation 2.68  
Year to date precipitation 13.67  
Snow  
Snow 0.00 in 0.00 in 0.00 in ()
Month to date snowfall 0.0  
Since 1 June snowfall 0.0  
Since 1 July snowfall 47.4  
Snow Depth -    
Sea Level Pressure  
Sea Level Pressure 29.83 in    
Wind  
Wind Speed 2 mph (SW)    
Max Wind Speed 9 mph    
Max Gust Speed -    
Visibility 10 miles    
Events      
T = Trace of Precipitation, MM = Missing Value Source: NWS Daily Summary

Daily Weather History Graph

Daily Weather History Graph

Search for Another Location

Airport:

Trip Planner

Search our weather history database for the weather conditions in past years. The results will help you decide how hot, cold, wet, or windy it might be!

Date:

Astronomy

Jun. 26, 2013 Rise Set
Actual Time 5:55 AM EDT 9:16 PM EDT
Civil Twilight 5:19 AM EDT 9:51 PM EDT
Nautical Twilight 4:33 AM EDT 10:37 PM EDT
Astronomical Twilight 3:36 AM EDT 11:34 PM EDT
Moon 11:31 PM EDT (6/26) 9:51 AM EDT (6/26)
Length of Visible Light 16h 32m
Length of Day
15h 21m
Waning Gibbous, 85% of the Moon is Illuminated
Jun 26
Waning Gibbous
Jun 30
Last Quarter
Jul 8
New
Jul 15
First Quarter
Jul 22
Full

Hourly Weather History & Observations

Time (EDT) Temp. Heat Index Dew Point Humidity Pressure Visibility Wind Dir Wind Speed Gust Speed Precip Events Conditions
12:14 AM 67.1 °F - 66.2 °F 97% 29.88 in 7.0 mi Calm Calm - N/A   Scattered Clouds
12:34 AM 67.1 °F - 66.2 °F 97% 29.88 in 7.0 mi Calm Calm - N/A   Mostly Cloudy
12:53 AM 67.5 °F - 66.6 °F 97% 29.88 in 7.0 mi Calm Calm - N/A   Mostly Cloudy
1:14 AM 67.3 °F - 66.4 °F 97% 29.88 in 7.0 mi Calm Calm - N/A   Mostly Cloudy
1:34 AM 67.6 °F - 66.7 °F 97% 29.88 in 7.0 mi Calm Calm - N/A   Overcast
1:53 AM 69.3 °F - 67.3 °F 93% 29.87 in 10.0 mi Calm Calm - N/A   Overcast
2:14 AM 68.9 °F - 67.1 °F 94% 29.86 in 10.0 mi Calm Calm - N/A   Overcast
2:33 AM 69.8 °F - 67.1 °F 91% 29.85 in 10.0 mi West 4.6 mph - N/A   Overcast
2:53 AM 69.4 °F - 66.6 °F 91% 29.84 in 10.0 mi NNW 3.5 mph - N/A   Mostly Cloudy
3:14 AM 69.1 °F - 66.2 °F 91% 29.83 in 10.0 mi Calm Calm - N/A   Clear
3:33 AM 68.5 °F - 66.0 °F 92% 29.83 in 10.0 mi Calm Calm - N/A   Clear
3:53 AM 66.4 °F - 65.5 °F 97% 29.83 in 7.0 mi Calm Calm - N/A   Clear
4:14 AM 66.2 °F - 65.3 °F 97% 29.83 in 7.0 mi Calm Calm - N/A   Clear
4:33 AM 65.3 °F - 64.4 °F 97% 29.83 in 7.0 mi Calm Calm - N/A   Clear
4:53 AM 65.1 °F - 64.6 °F 98% 29.83 in 7.0 mi Calm Calm - N/A   Clear
5:14 AM 65.3 °F - 64.2 °F 96% 29.83 in 10.0 mi Calm Calm - N/A   Clear
5:33 AM 65.5 °F - 64.4 °F 96% 29.83 in 10.0 mi Calm Calm - N/A   Clear
5:53 AM 64.6 °F - 63.9 °F 98% 29.83 in 5.0 mi South 3.5 mph - N/A   Clear
6:14 AM 65.8 °F - 64.4 °F 95% 29.84 in 10.0 mi WSW 4.6 mph - N/A   Clear
6:33 AM 66.2 °F - 64.4 °F 94% 29.84 in 10.0 mi West 3.5 mph - N/A   Clear
6:53 AM 66.6 °F - 64.6 °F 93% 29.84 in 10.0 mi SW 3.5 mph - N/A   Clear
7:14 AM 67.3 °F - 65.1 °F 93% 29.85 in 10.0 mi SSW 4.6 mph - N/A   Clear
7:33 AM 68.0 °F - 65.3 °F 91% 29.85 in 10.0 mi SSW 4.6 mph - N/A   Clear
7:53 AM 68.9 °F - 65.3 °F 88% 29.86 in 10.0 mi West 5.8 mph - N/A   Clear
8:14 AM 70.7 °F - 65.8 °F 85% 29.86 in 10.0 mi Calm Calm - N/A   Clear
8:33 AM 71.4 °F - 66.4 °F 84% 29.86 in 10.0 mi West 3.5 mph - N/A   Scattered Clouds
8:54 AM 71.6 °F - 66.4 °F 84% 29.86 in 10.0 mi West 3.5 mph - N/A   Overcast
9:14 AM 72.1 °F - 66.9 °F 84% 29.86 in 10.0 mi West 3.5 mph - N/A   Overcast
9:33 AM 73.0 °F - 67.3 °F 82% 29.86 in 10.0 mi Calm Calm - N/A   Mostly Cloudy
9:54 AM 74.1 °F - 67.5 °F 80% 29.86 in 10.0 mi Calm Calm - N/A   Mostly Cloudy
10:14 AM 73.8 °F - 67.5 °F 81% 29.86 in 10.0 mi SW 8.1 mph - N/A   Overcast
10:33 AM 74.5 °F - 67.1 °F 78% 29.86 in 10.0 mi SW 5.8 mph - N/A   Overcast
10:54 AM 74.5 °F - 67.1 °F 78% 29.86 in 10.0 mi West 9.2 mph - N/A   Overcast
11:14 AM 75.4 °F - 66.9 °F 75% 29.85 in 10.0 mi SW 5.8 mph - N/A   Mostly Cloudy
11:33 AM 76.3 °F - 66.7 °F 72% 29.86 in 10.0 mi WSW 8.1 mph - N/A   Mostly Cloudy
11:54 AM 75.7 °F - 66.7 °F 74% 29.86 in 10.0 mi West 8.1 mph - N/A   Overcast
12:14 PM 76.3 °F - 67.3 °F 74% 29.87 in 10.0 mi West 8.1 mph - N/A   Overcast
12:33 PM 77.5 °F - 66.2 °F 68% 29.86 in 10.0 mi WSW 6.9 mph - N/A   Overcast
12:54 PM 78.4 °F - 67.3 °F 68% 29.86 in 10.0 mi SW 8.1 mph - N/A   Mostly Cloudy
1:14 PM 80.1 °F 82.2 °F 66.6 °F 63% 29.86 in 10.0 mi SW 6.9 mph - N/A   Scattered Clouds
1:33 PM 80.2 °F 82.2 °F 65.8 °F 61% 29.85 in 10.0 mi WNW 4.6 mph - N/A   Scattered Clouds
1:54 PM 81.3 °F 83.5 °F 66.4 °F 60% 29.85 in 10.0 mi West 4.6 mph - N/A   Scattered Clouds
2:13 PM 80.1 °F 82.1 °F 66.0 °F 62% 29.85 in 10.0 mi Calm Calm - N/A   Scattered Clouds
2:34 PM 81.7 °F 83.6 °F 65.8 °F 58% 29.84 in 10.0 mi Calm Calm - N/A   Scattered Clouds
2:54 PM 81.5 °F 83.7 °F 66.6 °F 60% 29.83 in 10.0 mi North 3.5 mph - N/A   Mostly Cloudy
3:13 PM 81.0 °F 83.0 °F 66.0 °F 60% 29.82 in 10.0 mi ENE 3.5 mph - N/A   Scattered Clouds
3:34 PM 81.5 °F 83.6 °F 66.0 °F 59% 29.82 in 10.0 mi Calm Calm - N/A   Clear
3:54 PM 82.2 °F 84.6 °F 66.4 °F 59% 29.81 in 10.0 mi Calm Calm - N/A   Scattered Clouds
4:13 PM 82.4 °F 84.2 °F 65.1 °F 56% 29.81 in 10.0 mi Calm Calm - N/A   Clear
4:34 PM 82.6 °F 84.3 °F 65.1 °F 55% 29.81 in 10.0 mi SE 3.5 mph - N/A   Clear
4:54 PM 83.1 °F 85.0 °F 65.7 °F 55% 29.81 in 10.0 mi Calm Calm - N/A   Scattered Clouds
5:13 PM 83.3 °F 85.1 °F 65.3 °F 54% 29.80 in 10.0 mi Calm Calm - N/A   Scattered Clouds
5:34 PM 82.8 °F 84.5 °F 65.1 °F 55% 29.80 in 10.0 mi South 3.5 mph - N/A   Scattered Clouds
5:54 PM 81.9 °F 83.9 °F 65.7 °F 58% 29.79 in 10.0 mi East 3.5 mph - N/A   Scattered Clouds
6:13 PM 81.5 °F 83.7 °F 66.2 °F 60% 29.78 in 10.0 mi Calm Calm - N/A   Clear
6:34 PM 81.0 °F 83.0 °F 65.7 °F 60% 29.78 in 10.0 mi Calm Calm - N/A   Clear
6:53 PM 81.7 °F 83.8 °F 66.2 °F 59% 29.78 in 10.0 mi Calm Calm - N/A   Scattered Clouds
7:13 PM 81.9 °F 84.1 °F 66.2 °F 59% 29.78 in 10.0 mi East 3.5 mph - N/A   Mostly Cloudy
7:34 PM 81.5 °F 83.6 °F 65.8 °F 59% 29.78 in 10.0 mi Calm Calm - N/A   Scattered Clouds
7:53 PM 81.0 °F 83.2 °F 66.6 °F 61% 29.77 in 10.0 mi East 3.5 mph - N/A   Scattered Clouds
8:13 PM 80.2 °F 82.6 °F 67.3 °F 64% 29.78 in 10.0 mi Calm Calm - N/A   Clear
8:34 PM 79.2 °F - 67.5 °F 67% 29.78 in 10.0 mi Calm Calm - N/A   Clear
8:53 PM 78.1 °F - 68.0 °F 71% 29.78 in 10.0 mi SSE 3.5 mph - N/A   Clear
9:13 PM 77.0 °F - 68.0 °F 74% 29.78 in 10.0 mi SSE 4.6 mph - N/A   Clear
9:34 PM 75.6 °F - 68.2 °F 78% 29.78 in 7.0 mi SSE 5.8 mph - N/A   Clear
9:53 PM 75.4 °F - 68.0 °F 78% 29.78 in 10.0 mi South 5.8 mph - N/A   Clear
10:13 PM 74.7 °F - 68.0 °F 80% 29.78 in 10.0 mi SE 4.6 mph - N/A   Clear
10:34 PM 74.5 °F - 68.2 °F 81% 29.79 in 10.0 mi South 3.5 mph - N/A   Clear
10:53 PM 73.6 °F - 68.4 °F 84% 29.79 in 10.0 mi Calm Calm - N/A   Clear
11:13 PM 73.0 °F - 68.4 °F 85% 29.79 in 10.0 mi Calm Calm - N/A   Clear
11:34 PM 72.9 °F - 68.7 °F 87% 29.79 in 10.0 mi Calm Calm - N/A   Clear
11:53 PM 72.5 °F - 68.2 °F 86% 29.78 in 10.0 mi NE 3.5 mph - N/A   Clear